Location: Campillo
(40.8621°N, 4.2488°W)
Time: 11:54:10
(UTC+00:00)

SPOT 5 - Pass Details

Date: 11 May 2021
Orbit: 623 x 814 km, 98.2° (Epoch: 14 June)

Event Time Altitude Azimuth Distance (km) Brightness Sun altitude
Exits shadow 21:38:30 44° 120° (ESE) 1,058 3.3 -20.9°
Maximum altitude 21:39:45 56° 72° (ENE) 920 3.2 -21.1°
Drops below altitude 10° 21:44:54 10° 356° (N) 2,378 6.3 -21.7°
Sets 21:47:19 0° 352° (N) 3,328 7.3 -22.0°
